EW6228 Weather Reports


Display with metric or nautical units.
time (UTC)temp
F
wind
direction
speed
MPH
gust
MPH
rain 1hr
in
rain 24hr
in
rain mn
in
humidity
%
barometer
mb
20260510060831 73 91 0.0 2.0 0.00 0.00 0.00 100 1011.1
20260510060325 72 98 1.0 2.0 0.00 0.00 0.00 100 1011.2
20260510060048 72 61 0.0 2.0 0.00 0.00 0.00 100 1011.2
20260510055309 72 68 0.0 2.0 0.00 0.00 0.00 100 1011.1
20260510054802 72 68 0.0 2.0 0.00 0.00 0.00 100 1011.2
20260510053749 72 66 0.0 3.0 0.00 0.00 0.00 100 1011.2
20260510053238 72 64 1.0 5.0 0.00 0.00 0.00 100 1011.1
20260510052733 73 58 2.0 5.0 0.00 0.00 0.00 100 1011.1
20260510052232 73 66 1.0 5.0 0.00 0.00 0.00 100 1010.9
20260510051725 73 79 0.0 0.0 0.00 0.00 0.00 100 1010.8
20260510051450 73 82 0.0 0.0 0.00 0.00 0.00 100 1010.7
20260510050713 73 84 0.0 0.0 0.00 0.00 0.00 100 1010.8
20260510050208 73 78 0.0 0.0 0.00 0.00 0.00 100 1010.8
20260510045928 73 78 0.0 0.0 0.00 0.00 0.02 100 1010.6
20260510045151 73 78 0.0 0.0 0.00 0.00 0.02 100 1010.6
20260510044650 73 78 0.0 2.0 0.00 0.00 0.02 100 1010.5
20260510044416 73 78 0.0 3.0 0.00 0.00 0.02 100 1010.6
20260510043905 73 93 0.0 3.0 0.00 0.00 0.02 100 1010.6
20260510043128 73 91 1.0 5.0 0.00 0.00 0.02 100 1010.6
20260510042625 73 53 1.0 5.0 0.00 0.00 0.02 100 1010.7
20260510042119 73 59 1.0 5.0 0.00 0.00 0.02 100 1010.7
20260510041844 74 57 1.0 5.0 0.00 0.00 0.02 100 1010.7
20260510041125 74 48 0.0 0.0 0.00 0.00 0.02 100 1010.6
20260510040602 74 80 0.0 0.0 0.00 0.00 0.02 100 1010.3
20260510040056 74 88 0.0 1.0 0.00 0.00 0.02 100 1010.2
20260510035550 74 103 0.0 1.0 0.00 0.00 0.02 100 1010.1
20260510035043 75 137 0.0 1.0 0.00 0.00 0.02 100 1009.9
20260510034533 75 177 0.0 0.0 0.00 0.00 0.02 100 1009.7
20260510034027 75 178 1.0 4.0 0.00 0.00 0.02 100 1009.5
20260510033520 75 174 2.0 4.0 0.00 0.00 0.02 100 1009.5
20260510033251 75 174 2.0 4.0 0.00 0.00 0.02 100 1009.4
20260510032513 74 179 0.0 4.0 0.00 0.00 0.02 100 1009.3
20260510032007 75 178 0.0 1.0 0.00 0.00 0.02 100 1009.4
20260510031455 75 170 0.0 1.0 0.00 0.00 0.02 100 1009.5
20260510030956 75 152 0.0 1.0 0.00 0.00 0.02 100 1009.5
20260510030444 75 154 0.0 2.0 0.00 0.00 0.02 100 1009.4
20260510025943 75 136 0.0 2.0 0.00 0.00 0.02 100 1009.5
20260510025433 75 130 0.0 2.0 0.00 0.00 0.02 100 1009.4
20260510024931 75 120 0.0 2.0 0.00 0.00 0.02 100 1009.4
20260510024426 75 122 0.0 3.0 0.00 0.00 0.02 100 1009.4
20260510023916 75 114 0.0 3.0 0.00 0.00 0.02 100 1009.1
20260510023413 75 78 0.0 0.0 0.00 0.00 0.02 100 1009.3
20260510022903 75 78 0.0 1.0 0.00 0.00 0.02 100 1009.3
20260510022401 75 78 0.0 1.0 0.00 0.00 0.02 100 1009.3
20260510022126 75 60 0.0 1.0 0.00 0.00 0.02 100 1009.2
20260510021349 75 84 0.0 1.0 0.00 0.00 0.02 100 1009.1
20260510020843 76 84 0.0 0.0 0.00 0.00 0.02 100 1008.9
20260510020333 76 84 0.0 1.0 0.00 0.00 0.02 100 1008.8
20260510015831 76 84 0.0 1.0 0.00 0.00 0.02 100 1008.6
20260510015321 77 84 0.0 1.0 0.00 0.00 0.02 100 1008.4
20260510014813 77 118 0.0 0.0 0.00 0.00 0.02 7 1008.2
20260510014308 78 151 0.0 5.0 0.00 0.00 0.02 12 1008.1
20260510013807 78 147 2.0 6.0 0.00 0.00 0.02 18 1007.9
20260510013302 79 142 5.0 9.0 0.00 0.00 0.02 21 1007.7
20260510012756 79 173 5.0 10.0 0.00 0.00 0.02 16 1007.5
20260510012250 79 145 4.0 10.0 0.00 0.00 0.02 8 1007.5
20260510011739 80 182 3.0 10.0 0.00 0.00 0.02 2 1007.7
20260510011232 80 149 2.0 6.0 0.00 0.00 0.02 3 1007.7
20260510010732 80 172 1.0 6.0 0.00 0.00 0.02 4 1007.7
20260510010457 81 167 1.0 5.0 0.00 0.00 0.02 9 1007.8
20260510005719 81 175 2.0 6.0 0.00 0.00 0.02 16 1007.9
20260510005213 82 139 3.0 7.0 0.00 0.00 0.02 22 1008.0
20260510004702 82 170 4.0 8.0 0.00 0.00 0.02 27 1008.0
20260510004201 82 143 5.0 9.0 0.00 0.00 0.02 32 1008.0
20260510003651 83 140 5.0 9.0 0.00 0.00 0.02 35 1008.1
20260510003149 83 149 4.0 9.0 0.00 0.00 0.02 37 1008.1
20260510002639 84 151 4.0 9.0 0.00 0.00 0.02 39 1008.1
20260510002133 84 145 4.0 10.0 0.00 0.00 0.02 48 1008.0
20260510001631 85 169 3.0 10.0 0.00 0.00 0.02 50 1007.9
20260510001125 85 147 4.0 10.0 0.00 0.00 0.02 51 1007.7
20260510000110 86 146 5.0 8.0 0.00 0.00 0.02 53 1007.7
20260509235607 86 142 3.0 8.0 0.00 0.00 0.02 54 1007.6
20260509235057 87 137 1.0 9.0 0.00 0.00 0.02 54 1007.7
20260509234554 87 145 4.0 11.0 0.00 0.00 0.02 54 1007.7
20260509234320 87 137 6.0 11.0 0.00 0.00 0.02 54 1007.8
20260509233543 87 151 5.0 10.0 0.00 0.00 0.02 54 1007.8
20260509233032 87 130 4.0 11.0 0.00 0.00 0.02 54 1007.7
20260509232526 87 136 5.0 11.0 0.00 0.00 0.02 54 1007.6
20260509232021 87 125 6.0 12.0 0.00 0.00 0.02 54 1007.6
20260509231513 87 147 7.0 12.0 0.00 0.00 0.02 54 1007.6
20260509231013 87 126 8.0 14.0 0.00 0.00 0.02 54 1007.5
20260509230507 88 130 7.0 12.0 0.00 0.00 0.02 54 1007.5
20260509230234 88 140 7.0 12.0 0.00 0.00 0.02 54 1007.5
20260509225455 88 139 7.0 12.0 0.00 0.00 0.02 54 1007.5
20260509224954 88 149 6.0 11.0 0.00 0.00 0.02 54 1007.4
20260509224458 89 134 7.0 14.0 0.00 0.00 0.02 54 1007.5
20260509223459 89 182 6.0 11.0 0.00 0.00 0.02 54 1007.6
20260509222956 89 156 7.0 11.0 0.00 0.00 0.02 54 1007.6
20260509222457 89 140 7.0 11.0 0.00 0.00 0.02 54 1007.5
20260509222230 89 137 5.0 12.0 0.00 0.00 0.02 53 1007.6
20260509221500 91 158 1.0 12.0 0.00 0.00 0.02 52 1007.6
20260509220954 92 168 0.0 1.0 0.00 0.00 0.02 50 1007.6
20260509220456 92 261 0.0 2.0 0.00 0.00 0.02 49 1007.6
20260509220227 92 267 0.0 2.0 0.00 0.00 0.02 50 1007.5
20260509215732 92 314 0.0 0.0 0.00 0.00 0.02 48 1007.5
20260509215215 91 269 0.0 0.0 0.00 0.00 0.02 48 1007.5
20260509214431 92 267 0.0 6.0 0.00 0.00 0.02 46 1007.5
20260509213919 92 283 0.0 6.0 0.00 0.00 0.02 49 1007.5
20260509212855 91 226 1.0 6.0 0.00 0.00 0.02 52 1007.5
20260509212343 91 276 1.0 6.0 0.00 0.00 0.02 52 1007.4
20260509211839 91 124 2.0 6.0 0.00 0.00 0.02 51 1007.5
20260509211616 91 250 2.0 7.0 0.00 0.00 0.02 52 1007.5
20260509210839 91 271 2.0 7.0 0.00 0.00 0.02 54 1007.5
20260509210340 91 265 2.0 7.0 0.00 0.00 0.02 54 1007.6
20260509205845 90 273 2.0 7.0 0.00 0.00 0.02 53 1007.7
20260509205345 91 263 2.0 8.0 0.00 0.00 0.02 53 1007.7
20260509204839 90 267 2.0 8.0 0.00 0.00 0.02 54 1007.8
20260509204345 90 274 2.0 7.0 0.00 0.00 0.02 53 1007.8
20260509203835 90 298 3.0 7.0 0.00 0.00 0.02 53 1007.8
20260509203340 89 300 1.0 7.0 0.00 0.00 0.02 54 1007.8
20260509202834 89 257 0.0 2.0 0.00 0.00 0.02 54 1007.9
20260509202334 89 63 0.0 2.0 0.00 0.00 0.02 54 1007.9
20260509201834 89 271 0.0 2.0 0.00 0.00 0.02 54 1008.0
20260509201334 89 267 0.0 6.0 0.00 0.00 0.02 54 1008.0
20260509200840 89 227 1.0 7.0 0.00 0.00 0.02 53 1008.0
20260509200336 89 292 1.0 7.0 0.00 0.00 0.02 54 1008.1
20260509200120 89 274 0.0 6.0 0.00 0.00 0.02 54 1008.2
20260509195334 88 300 0.0 6.0 0.00 0.00 0.02 54 1008.2
20260509194828 88 290 0.0 5.0 0.00 0.00 0.02 54 1008.3
20260509194554 88 239 0.0 5.0 0.00 0.00 0.02 54 1008.4
20260509193816 88 282 1.0 5.0 0.00 0.00 0.02 53 1008.4
20260509193310 88 246 1.0 5.0 0.00 0.00 0.02 54 1008.5
20260509192759 88 189 1.0 7.0 0.00 0.00 0.02 54 1008.6
20260509192528 88 186 1.0 7.0 0.00 0.00 0.02 54 1008.6
20260509191752 87 252 0.0 2.0 0.00 0.00 0.02 52 1008.7
20260509191242 87 251 0.0 3.0 0.00 0.00 0.02 53 1008.8
20260509190741 87 61 0.0 3.0 0.00 0.00 0.02 52 1008.8
20260509190230 86 9 0.0 4.0 0.00 0.00 0.02 53 1008.9
20260509185729 87 329 0.0 4.0 0.00 0.00 0.02 53 1008.9
20260509185212 87 343 0.0 0.0 0.00 0.00 0.02 54 1008.9
20260509184948 86 269 0.0 4.0 0.00 0.00 0.02 54 1008.9
20260509184445 86 254 0.0 4.0 0.00 0.00 0.02 54 1009.0
20260509183704 86 263 0.0 1.0 0.00 0.00 0.02 54 1009.1
20260509183159 85 244 0.0 0.0 0.00 0.00 0.02 53 1009.0
20260509182919 85 238 0.0 2.0 0.00 0.00 0.02 52 1009.1
20260509182136 85 263 0.0 2.0 0.00 0.00 0.02 46 1009.1
20260509181636 85 244 0.0 8.0 0.00 0.00 0.02 38 1009.2
20260509181128 85 209 2.0 8.0 0.00 0.00 0.02 36 1009.2
20260509180626 85 263 1.0 6.0 0.00 0.00 0.02 15 1009.3
20260509175607 84 263 3.0 9.0 0.00 0.00 0.02 8 1009.5
20260509175343 84 249 3.0 8.0 0.00 0.00 0.02 10 1009.5
20260509174838 84 253 3.0 9.0 0.00 0.00 0.02 100 1009.6
20260509174346 83 278 4.0 9.0 0.00 0.00 0.02 100 1009.5
20260509173550 83 264 3.0 9.0 0.00 0.00 0.02 100 1009.7
20260509173326 83 309 3.0 9.0 0.00 0.00 0.02 100 1009.8
20260509172550 83 242 3.0 7.0 0.00 0.00 0.02 100 1009.9
20260509171548 82 19 1.0 7.0 0.00 0.00 0.02 100 1009.9
20260509171112 82 279 2.0 7.0 0.00 0.00 0.02 100 1009.9
20260509170106 82 336 3.0 7.0 0.00 0.00 0.02 100 1009.9
20260509165547 81 342 2.0 7.0 0.00 0.00 0.02 100 1009.6
20260509165056 81 342 3.0 8.0 0.00 0.00 0.02 100 1009.5
20260509164542 81 301 4.0 8.0 0.00 0.00 0.02 100 1009.5
20260509164059 80 1 3.0 8.0 0.00 0.00 0.02 100 1009.6
20260509163824 80 352 3.0 7.0 0.00 0.00 0.02 100 1009.7
20260509163059 80 298 3.0 7.0 0.00 0.00 0.02 100 1009.6
20260509162548 80 65 2.0 6.0 0.00 0.00 0.02 100 1009.6
20260509162051 80 352 2.0 2.0 0.00 0.00 0.02 100 1009.6
20260509161412 80 23 1.0 4.0 0.00 0.00 0.02 100 1009.6
20260509160902 80 36 0.0 4.0 0.00 0.00 0.02 100 1009.8
20260509160350 79 269 0.0 1.0 0.00 0.00 0.02 100 1009.7
20260509160126 79 269 0.0 2.0 0.00 0.00 0.02 100 1009.7
20260509155338 78 306 0.0 2.0 0.00 0.00 0.02 100 1009.7
20260509154832 78 139 0.0 0.0 0.00 0.00 0.02 100 1009.5
20260509154326 78 139 0.0 0.0 0.00 0.00 0.02 100 1009.8
20260509153820 78 138 0.0 0.0 0.00 0.00 0.02 100 1010.0
20260509153545 78 139 0.0 0.0 0.00 0.00 0.02 100 1009.8
20260509152804 77 139 0.0 0.0 0.00 0.00 0.02 100 1009.5
20260509152305 77 122 0.0 2.0 0.00 0.00 0.02 100 1009.7
20260509151756 77 114 0.0 2.0 0.00 0.00 0.02 100 1009.6
20260509151250 77 114 0.0 2.0 0.00 0.00 0.02 100 1010.0
20260509150740 77 114 0.0 2.0 0.00 0.00 0.02 100 1009.6
20260509150238 77 153 0.0 0.0 0.00 0.00 0.02 100 1009.4
20260509145734 77 169 0.0 0.0 0.00 0.00 0.02 100 1009.3
20260509145221 77 169 0.0 0.0 0.00 0.00 0.02 100 1009.5
20260509144721 77 202 0.0 0.0 0.00 0.00 0.02 100 1009.8
20260509144215 77 203 0.0 0.0 0.00 0.00 0.02 100 1009.9
20260509143939 76 203 0.0 0.0 0.00 0.00 0.02 100 1010.0
20260509143208 76 203 0.0 0.0 0.00 0.00 0.02 100 1010.0
20260509142706 76 203 0.0 0.0 0.00 0.00 0.02 100 1009.9
20260509142203 76 203 0.0 0.0 0.00 0.00 0.02 100 1009.7
20260509142011 76 203 0.0 0.0 0.00 0.00 0.02 100 1009.5
20260509140701 76 209 0.0 1.0 0.00 0.00 0.02 100 1009.3
20260509140159 76 228 0.0 0.0 0.00 0.00 0.02 100 1009.4
20260509135700 76 229 0.0 0.0 0.00 0.00 0.02 100 1009.4
20260509135159 76 241 0.0 0.0 0.00 0.00 0.02 100 1009.4
20260509134656 76 308 0.0 0.0 0.00 0.00 0.02 100 1009.1
20260509133703 76 282 0.0 0.0 0.00 0.00 0.02 100 1009.0
20260509133155 76 294 0.0 0.0 0.00 0.00 0.02 100 1009.0
20260509132658 76 278 0.0 0.0 0.00 0.00 0.02 100 1008.8
20260509132155 77 280 0.0 0.0 0.00 0.00 0.02 100 1008.8
20260509131654 77 276 0.0 0.0 0.00 0.00 0.02 100 1008.8
20260509131154 76 149 0.0 0.0 0.00 0.00 0.02 100 1008.3
20260509130655 74 244 0.0 0.0 0.00 0.00 0.02 100 1008.3
20260509130152 74 240 0.0 0.0 0.00 0.02 0.02 100 1008.4
20260509125646 74 148 0.0 0.0 0.00 0.02 0.02 100 1006.6
20260509125140 74 147 0.0 0.0 0.01 0.02 0.02 100 1006.7
20260509124629 74 151 0.0 0.0 0.01 0.02 0.02 100 1008.3
20260509124124 74 164 0.0 0.0 0.01 0.02 0.02 100 1008.4
20260509123622 74 150 0.0 0.0 0.02 0.02 0.02 100 1008.7
20260509123117 73 106 0.0 0.0 0.02 0.02 0.02 100 1009.5
20260509122610 73 106 0.0 0.0 0.02 0.02 0.02 100 1008.8
20260509122105 73 105 0.0 0.0 0.02 0.02 0.02 100 1008.3
20260509121558 74 153 0.0 0.0 0.02 0.02 0.02 100 1008.4
20260509121049 74 154 0.0 0.0 0.02 0.02 0.02 100 1008.5
20260509120543 74 150 0.0 0.0 0.02 0.02 0.02 100 1009.0
20260509120040 74 165 0.0 0.0 0.02 0.02 0.02 100 1009.5
20260509115536 74 154 0.0 0.0 0.02 0.02 0.02 100 1009.6
20260509115023 74 142 0.0 0.0 0.01 0.01 0.01 100 1009.8
20260509114522 74 146 0.0 0.0 0.01 0.01 0.01 100 1010.1
20260509113510 73 129 0.0 0.0 0.00 0.00 0.00 100 1010.4
20260509113004 73 145 0.0 0.0 0.00 0.00 0.00 100 1010.3
20260509112458 74 196 0.0 1.0 0.00 0.00 0.00 100 1010.4
20260509111729 74 167 0.0 1.0 0.00 0.00 0.00 100 1010.1
20260509110457 74 149 0.0 1.0 0.00 0.00 0.00 100 1009.6
20260509105957 74 259 0.0 1.0 0.00 0.00 0.00 100 1009.9
20260509105457 74 274 0.0 1.0 0.00 0.00 0.00 100 1009.9
20260509105229 74 276 0.0 1.0 0.00 0.00 0.00 100 1009.7
20260509104458 74 273 0.0 1.0 0.00 0.00 0.00 100 1009.7
20260509103452 74 3 0.0 1.0 0.00 0.00 0.00 100 1009.0
20260509102940 74 3 0.0 0.0 0.00 0.00 0.00 100 1008.9
20260509101928 74 3 0.0 1.0 0.00 0.00 0.00 100 1008.9
20260509101429 74 3 0.0 1.0 0.00 0.00 0.00 100 1008.8
20260509100929 74 2 0.0 1.0 0.00 0.00 0.00 100 1008.8
20260509100428 74 99 0.0 0.0 0.00 0.00 0.00 100 1008.8
20260509095929 74 156 0.0 0.0 0.00 0.00 0.00 100 1008.9
20260509095700 74 157 0.0 1.0 0.00 0.00 0.00 100 1008.9
20260509094430 74 164 0.0 0.0 0.00 0.00 0.00 100 1008.8
20260509093924 74 164 0.0 1.0 0.00 0.00 0.00 100 1008.8
20260509093412 74 165 0.0 2.0 0.00 0.00 0.00 100 1008.5
20260509092859 74 140 0.0 2.0 0.00 0.00 0.00 100 1008.4
20260509092348 74 112 0.0 0.0 0.00 0.00 0.00 100 1008.5
20260509091837 74 110 0.0 0.0 0.00 0.00 0.00 100 1008.7
20260509091339 74 110 0.0 0.0 0.00 0.00 0.00 100 1008.5
20260509091109 74 122 0.0 0.0 0.00 0.00 0.00 100 1008.2
20260509090336 74 109 0.0 0.0 0.00 0.00 0.00 100 1008.0
20260509090108 74 96 0.0 1.0 0.00 0.00 0.00 100 1008.0
20260509085337 74 90 0.0 1.0 0.00 0.00 0.00 100 1007.9
20260509085110 74 60 0.0 0.0 0.00 0.00 0.00 100 1007.9
20260509084337 74 74 0.0 0.0 0.00 0.00 0.00 100 1008.1
20260509083838 74 74 0.0 0.0 0.00 0.00 0.00 100 1008.3
20260509083604 74 74 0.0 0.0 0.00 0.00 0.00 100 1008.5
20260509082827 74 74 0.0 0.0 0.00 0.00 0.00 100 1008.5
20260509082546 74 74 0.0 0.0 0.00 0.00 0.00 100 1008.6
20260509081536 74 74 0.0 1.0 0.00 0.00 0.00 100 1008.4
20260509080758 74 80 0.0 0.0 0.00 0.00 0.00 100 1008.3
20260509080252 74 77 0.0 0.0 0.00 0.00 0.00 100 1008.4
20260509075235 74 78 0.0 0.0 0.00 0.00 0.00 100 1009.2
20260509074728 74 78 0.0 0.0 0.00 0.00 0.00 100 1009.4
20260509074459 74 78 0.0 0.0 0.00 0.00 0.00 100 1009.4
20260509073721 74 90 0.0 0.0 0.00 0.00 0.00 100 1009.3
20260509073216 75 116 0.0 0.0 0.00 0.00 0.00 100 1009.3
20260509072710 75 116 0.0 0.0 0.00 0.00 0.00 100 1009.4
20260509072204 75 116 0.0 0.0 0.00 0.00 0.00 100 1009.4
20260509071152 75 116 0.0 0.0 0.00 0.00 0.00 100 1009.3
20260509070646 75 116 0.0 0.0 0.00 0.00 0.00 100 1009.3
20260509070140 75 116 0.0 0.0 0.00 0.00 0.00 100 1009.2
20260509065633 75 116 0.0 0.0 0.00 0.00 0.00 100 1009.4
20260509065121 75 116 0.0 0.0 0.00 0.00 0.00 100 1009.5
20260509064622 75 116 0.0 0.0 0.00 0.00 0.00 100 1009.4
20260509064341 75 115 0.0 0.0 0.00 0.00 0.00 100 1009.3
20260509063604 76 115 0.0 0.0 0.00 0.00 0.00 100 1009.3
20260509063103 76 115 0.0 0.0 0.00 0.00 0.00 100 1009.3
20260509062557 76 115 0.0 0.0 0.00 0.00 0.00 100 1009.3
20260509062323 76 115 0.0 0.0 0.00 0.00 0.00 100 1009.3
20260509061541 76 115 0.0 1.0 0.00 0.00 0.00 100 1009.4
20260509061041 76 115 0.0 1.0 0.00 0.00 0.00 100 1009.4